Preview of NWS' New Version of Forecast
This preview is not operational and should not be used for support decisions.

Regional Weather Roundup (RWR)

Issued by National Weather Service (NWS)

                            
000
ASUS44 KJAN 251110
RWRMS 

MISSISSIPPI HOURLY WEATHER ROUNDUP
NATIONAL WEATHER SERVICE JACKSON MS
600 AM CDT TUE JUN 25 2019

NOTE: "FAIR: INDICATES FEW OR NO CLOUDS BELOW 12,000 FEET WITH NO
SIGNIFICANT WEATHER AND/OR OBSTRUCTIONS TO VISIBILITY.

MSZ001>002-007>008-010>013-018>021-025>028-034>036-251200-
NORTHWEST MISSISSIPPI
  
CITY           SKY/WX    TMP DP  RH WIND       PRES   REMARKS
BATESVILLE       N/A     66  64  94 CALM      30.02R                  
CLARKSDALE     CLEAR     70  70 100 CALM      30.02R                  
CLEVELAND      FAIR      70  70 100 S3        30.02R                  
GREENWOOD      FAIR      69  68  96 CALM      30.02R                  
GREENVILLE       N/A    N/A N/A N/A MISG      30.01R                  
OLIVE BRANCH     N/A     66 N/A N/A S5        30.01R                  
OXFORD         FAIR      64  64 100 CALM      30.04R                  
TUNICA           N/A     68  68 100 CALM      30.02R FOG              
WINONA         FAIR      67  67 100 CALM      30.04R                  
$$

MSZ003>006-009-014>017-022>024-029>033-037>039-251200-
NORTHEAST MISSISSIPPI
  
CITY           SKY/WX    TMP DP  RH WIND       PRES   REMARKS
ABERDEEN       FAIR      66  66 100 CALM      30.06R FOG              
COLUMBUS AFB   CLOUDY    67  65  95 CALM      30.04R                  
CORINTH        FAIR      66  66 100 CALM      30.02R                  
GOLDN TRIANGLE FAIR      70  68  94 CALM      30.05R                  
STARKVILLE       N/A     66  64  94 CALM      30.06R                  
TUPELO         FAIR      69  67  93 S5        30.03R                  
$$

MSZ040-058-251200-
CENTRAL MISSISSIPPI
  
CITY           SKY/WX    TMP DP  RH WIND       PRES   REMARKS
JACKSON INTL   FAIR      69  67  93 SE3       30.03R                  
JACKSON HAWKNS FAIR      71  70  96 CALM      30.04R                  
MADISON        FAIR      68  68 100 CALM      30.03R                  
MERIDIAN KEY   FAIR      72  69  90 CALM      30.05R                  
MERIDIAN NAS   FAIR      69  67  93 SW3       30.05R                  
RAYMOND        FAIR      70  70 100 CALM      30.02R FOG              
VICKSBURG VKS    N/A     72  72 100 CALM      30.02R                  
$$

MSZ059>079-251200-
SOUTH MISSISSIPPI
  
CITY           SKY/WX    TMP DP  RH WIND       PRES   REMARKS
BROOKHAVEN     FAIR      72  70  94 CALM      30.06R                  
HATTIESBURG    FAIR      70  68  93 CALM      30.05R                  
LAUREL         SUNNY     72  71  95 CALM      30.05R                  
MCCOMB         FAIR      71  70  96 CALM      30.04R                  
NATCHEZ        FAIR      72  70  93 SE3       30.03R                  
PINE BELT      FAIR      70  70 100 S3        30.06R                  
$$

MSZ080>082-251200-
COASTAL MISSISSIPPI
  
CITY           SKY/WX    TMP DP  RH WIND       PRES   REMARKS
BILOXI         MOCLDY    81  78  91 CALM      30.03R HX  90           
PASCAGOULA     FAIR      76  72  87 CALM      30.04R                  
GULFPORT       MOCLDY    76  73  91 CALM      30.02S                  
$$

LAZ007>009-015>016-023>026-251200-
NORTHEAST LOUISIANA
  
CITY           SKY/WX    TMP DP  RH WIND       PRES   REMARKS
BASTROP          N/A     69  68  98 CALM      30.02R FOG              
TALLULAH/VBURG FAIR      71  70  96 CALM      30.02R                  
VIDALIA        FAIR      74  72  91 CALM      30.00S                  
$$